#datetime,building,power
2023-09-25T00:00:00,rvs,19.20
2023-09-25T00:01:00,rvs,27.05
2023-09-25T00:02:00,rvs,26.70
2023-09-25T00:03:00,rvs,18.61
2023-09-25T00:04:00,rvs,22.70
2023-09-25T00:05:00,rvs,22.44
2023-09-25T00:06:00,rvs,22.62
2023-09-25T00:07:00,rvs,18.26
2023-09-25T00:08:00,rvs,22.16
2023-09-25T00:09:00,rvs,22.17
2023-09-25T00:10:00,rvs,18.10
2023-09-25T00:11:00,rvs,18.16
2023-09-25T00:12:00,rvs,18.47
2023-09-25T00:13:00,rvs,18.19
2023-09-25T00:14:00,rvs,26.91
2023-09-25T00:15:00,rvs,26.93
2023-09-25T00:16:00,rvs,26.95
2023-09-25T00:17:00,rvs,22.49
2023-09-25T00:18:00,rvs,18.33
2023-09-25T00:19:00,rvs,18.36
2023-09-25T00:20:00,rvs,18.30
2023-09-25T00:21:00,rvs,14.27
2023-09-25T00:22:00,rvs,13.74
2023-09-25T00:23:00,rvs,30.73
2023-09-25T00:24:00,rvs,31.23
2023-09-25T00:25:00,rvs,26.82
2023-09-25T00:26:00,rvs,26.29
2023-09-25T00:27:00,rvs,30.64
2023-09-25T00:28:00,rvs,17.56
2023-09-25T00:29:00,rvs,13.31
2023-09-25T00:30:00,rvs,13.16
2023-09-25T00:31:00,rvs,17.86
2023-09-25T00:32:00,rvs,17.06
2023-09-25T00:33:00,rvs,13.03
2023-09-25T00:34:00,rvs,12.45
2023-09-25T00:35:00,rvs,13.82
2023-09-25T00:36:00,rvs,17.93
2023-09-25T00:37:00,rvs,13.68
2023-09-25T00:38:00,rvs,12.18
2023-09-25T00:39:00,rvs,12.74
2023-09-25T00:40:00,rvs,16.32
2023-09-25T00:41:00,rvs,11.92
2023-09-25T00:42:00,rvs,12.03
2023-09-25T00:43:00,rvs,11.87
2023-09-25T00:44:00,rvs,15.99
2023-09-25T00:45:00,rvs,16.32
2023-09-25T00:46:00,rvs,11.61
2023-09-25T00:47:00,rvs,12.28
2023-09-25T00:48:00,rvs,12.36
2023-09-25T00:49:00,rvs,12.20
2023-09-25T00:50:00,rvs,12.50
2023-09-25T00:51:00,rvs,12.27
2023-09-25T00:52:00,rvs,12.65
2023-09-25T00:53:00,rvs,12.64
2023-09-25T00:54:00,rvs,12.39
2023-09-25T00:55:00,rvs,12.64
2023-09-25T00:56:00,rvs,16.62
2023-09-25T00:57:00,rvs,16.34
2023-09-25T00:58:00,rvs,16.39
2023-09-25T00:59:00,rvs,15.79
2023-09-25T01:00:00,rvs,15.72
2023-09-25T01:01:00,rvs,15.90
2023-09-25T01:02:00,rvs,16.43
2023-09-25T01:03:00,rvs,16.37
2023-09-25T01:04:00,rvs,15.83
2023-09-25T01:05:00,rvs,15.84
2023-09-25T01:06:00,rvs,16.39
2023-09-25T01:07:00,rvs,16.20
2023-09-25T01:08:00,rvs,16.32
2023-09-25T01:09:00,rvs,16.35
2023-09-25T01:10:00,rvs,15.86
2023-09-25T01:11:00,rvs,16.04
2023-09-25T01:12:00,rvs,15.87
2023-09-25T01:13:00,rvs,15.81
2023-09-25T01:14:00,rvs,15.97
2023-09-25T01:15:00,rvs,15.77
2023-09-25T01:16:00,rvs,15.85
2023-09-25T01:17:00,rvs,16.36
2023-09-25T01:18:00,rvs,12.25
2023-09-25T01:19:00,rvs,12.29
2023-09-25T01:20:00,rvs,15.75
2023-09-25T01:21:00,rvs,15.72
2023-09-25T01:22:00,rvs,15.66
2023-09-25T01:23:00,rvs,23.00
2023-09-25T01:24:00,rvs,11.82
2023-09-25T01:25:00,rvs,11.70
2023-09-25T01:26:00,rvs,15.86
2023-09-25T01:27:00,rvs,16.13
2023-09-25T01:28:00,rvs,12.13
2023-09-25T01:29:00,rvs,12.23
2023-09-25T01:30:00,rvs,15.46
2023-09-25T01:31:00,rvs,16.11
2023-09-25T01:32:00,rvs,11.25
2023-09-25T01:33:00,rvs,11.39
2023-09-25T01:34:00,rvs,11.35
2023-09-25T01:35:00,rvs,15.23
2023-09-25T01:36:00,rvs,15.34
2023-09-25T01:37:00,rvs,11.13
2023-09-25T01:38:00,rvs,11.07
2023-09-25T01:39:00,rvs,11.02
2023-09-25T01:40:00,rvs,15.81
2023-09-25T01:41:00,rvs,11.01
2023-09-25T01:42:00,rvs,11.33
2023-09-25T01:43:00,rvs,11.28
2023-09-25T01:44:00,rvs,11.14
2023-09-25T01:45:00,rvs,11.15
2023-09-25T01:46:00,rvs,11.17
2023-09-25T01:47:00,rvs,11.31
2023-09-25T01:48:00,rvs,11.41
2023-09-25T01:49:00,rvs,11.41
2023-09-25T01:50:00,rvs,15.72
2023-09-25T01:51:00,rvs,11.51
2023-09-25T01:52:00,rvs,11.45
2023-09-25T01:53:00,rvs,11.99
2023-09-25T01:54:00,rvs,11.43
2023-09-25T01:55:00,rvs,11.40
2023-09-25T01:56:00,rvs,11.02
2023-09-25T01:57:00,rvs,11.14
2023-09-25T01:58:00,rvs,11.24
2023-09-25T01:59:00,rvs,11.18
2023-09-25T02:00:00,rvs,11.23
2023-09-25T02:01:00,rvs,10.79
2023-09-25T02:02:00,rvs,11.20
2023-09-25T02:03:00,rvs,11.19
2023-09-25T02:04:00,rvs,10.99
2023-09-25T02:05:00,rvs,10.64
2023-09-25T02:06:00,rvs,10.65
2023-09-25T02:07:00,rvs,10.55
2023-09-25T02:08:00,rvs,10.42
2023-09-25T02:09:00,rvs,10.46
2023-09-25T02:10:00,rvs,10.49
2023-09-25T02:11:00,rvs,10.72
2023-09-25T02:12:00,rvs,10.66
2023-09-25T02:13:00,rvs,10.55
2023-09-25T02:14:00,rvs,11.28
2023-09-25T02:15:00,rvs,10.74
2023-09-25T02:16:00,rvs,10.80
2023-09-25T02:17:00,rvs,10.84
2023-09-25T02:18:00,rvs,11.02
2023-09-25T02:19:00,rvs,10.74
2023-09-25T02:20:00,rvs,10.84
2023-09-25T02:21:00,rvs,10.85
2023-09-25T02:22:00,rvs,10.77
2023-09-25T02:23:00,rvs,10.53
2023-09-25T02:24:00,rvs,10.44
2023-09-25T02:25:00,rvs,11.31
2023-09-25T02:26:00,rvs,11.39
2023-09-25T02:27:00,rvs,11.35
2023-09-25T02:28:00,rvs,11.40
2023-09-25T02:29:00,rvs,11.57
2023-09-25T02:30:00,rvs,11.63
2023-09-25T02:31:00,rvs,11.44
2023-09-25T02:32:00,rvs,11.36
2023-09-25T02:33:00,rvs,11.86
2023-09-25T02:34:00,rvs,11.66
2023-09-25T02:35:00,rvs,11.59
2023-09-25T02:36:00,rvs,11.61
2023-09-25T02:37:00,rvs,11.57
2023-09-25T02:38:00,rvs,11.47
2023-09-25T02:39:00,rvs,11.28
2023-09-25T02:40:00,rvs,11.22
2023-09-25T02:41:00,rvs,11.22
2023-09-25T02:42:00,rvs,11.18
2023-09-25T02:43:00,rvs,11.51
2023-09-25T02:44:00,rvs,15.84
2023-09-25T02:45:00,rvs,15.82
2023-09-25T02:46:00,rvs,15.81
2023-09-25T02:47:00,rvs,11.21
2023-09-25T02:48:00,rvs,11.41
2023-09-25T02:49:00,rvs,10.61
2023-09-25T02:50:00,rvs,10.87
2023-09-25T02:51:00,rvs,10.79
2023-09-25T02:52:00,rvs,10.36
2023-09-25T02:53:00,rvs,10.49
2023-09-25T02:54:00,rvs,10.25
2023-09-25T02:55:00,rvs,10.22
2023-09-25T02:56:00,rvs,10.17
2023-09-25T02:57:00,rvs,10.14
2023-09-25T02:58:00,rvs,10.52
2023-09-25T02:59:00,rvs,10.15
2023-09-25T03:00:00,rvs,10.16
2023-09-25T03:01:00,rvs,10.23
2023-09-25T03:02:00,rvs,10.27
2023-09-25T03:03:00,rvs,10.24
2023-09-25T03:04:00,rvs,10.51
2023-09-25T03:05:00,rvs,10.91
2023-09-25T03:06:00,rvs,10.89
2023-09-25T03:07:00,rvs,10.61
2023-09-25T03:08:00,rvs,10.61
2023-09-25T03:09:00,rvs,10.51
2023-09-25T03:10:00,rvs,10.59
2023-09-25T03:11:00,rvs,10.69
2023-09-25T03:12:00,rvs,10.69
2023-09-25T03:13:00,rvs,10.94
2023-09-25T03:14:00,rvs,10.90
2023-09-25T03:15:00,rvs,10.95
2023-09-25T03:16:00,rvs,11.02
2023-09-25T03:17:00,rvs,10.97
2023-09-25T03:18:00,rvs,10.86
2023-09-25T03:19:00,rvs,10.96
2023-09-25T03:20:00,rvs,10.89
2023-09-25T03:21:00,rvs,10.72
2023-09-25T03:22:00,rvs,10.79
2023-09-25T03:23:00,rvs,10.71
2023-09-25T03:24:00,rvs,11.11
2023-09-25T03:25:00,rvs,11.38
2023-09-25T03:26:00,rvs,11.39
2023-09-25T03:27:00,rvs,11.35
2023-09-25T03:28:00,rvs,11.21
2023-09-25T03:29:00,rvs,11.41
2023-09-25T03:30:00,rvs,11.30
2023-09-25T03:31:00,rvs,11.07
2023-09-25T03:32:00,rvs,11.15
2023-09-25T03:33:00,rvs,11.22
2023-09-25T03:34:00,rvs,11.60
2023-09-25T03:35:00,rvs,11.92
2023-09-25T03:36:00,rvs,11.54
2023-09-25T03:37:00,rvs,11.01
2023-09-25T03:38:00,rvs,10.45
2023-09-25T03:39:00,rvs,10.45
2023-09-25T03:40:00,rvs,10.23
2023-09-25T03:41:00,rvs,10.13
2023-09-25T03:42:00,rvs,9.81
2023-09-25T03:43:00,rvs,9.82
2023-09-25T03:44:00,rvs,9.88
2023-09-25T03:45:00,rvs,9.96
2023-09-25T03:46:00,rvs,9.99
2023-09-25T03:47:00,rvs,10.13
2023-09-25T03:48:00,rvs,10.00
2023-09-25T03:49:00,rvs,10.11
2023-09-25T03:50:00,rvs,10.23
2023-09-25T03:51:00,rvs,10.19
2023-09-25T03:52:00,rvs,10.25
2023-09-25T03:53:00,rvs,10.20
2023-09-25T03:54:00,rvs,10.28
2023-09-25T03:55:00,rvs,10.28
2023-09-25T03:56:00,rvs,10.19
2023-09-25T03:57:00,rvs,10.45
2023-09-25T03:58:00,rvs,10.27
2023-09-25T03:59:00,rvs,10.28
2023-09-25T04:00:00,rvs,10.24
2023-09-25T04:01:00,rvs,10.59
2023-09-25T04:02:00,rvs,23.58
2023-09-25T04:03:00,rvs,23.30
2023-09-25T04:04:00,rvs,23.14
2023-09-25T04:05:00,rvs,22.99
2023-09-25T04:06:00,rvs,22.94
2023-09-25T04:07:00,rvs,10.43
2023-09-25T04:08:00,rvs,10.41
2023-09-25T04:09:00,rvs,10.26
2023-09-25T04:10:00,rvs,10.30
2023-09-25T04:11:00,rvs,10.76
2023-09-25T04:12:00,rvs,10.75
2023-09-25T04:13:00,rvs,10.49
2023-09-25T04:14:00,rvs,10.89
2023-09-25T04:15:00,rvs,10.92
2023-09-25T04:16:00,rvs,10.99
2023-09-25T04:17:00,rvs,10.92
2023-09-25T04:18:00,rvs,10.83
2023-09-25T04:19:00,rvs,10.79
2023-09-25T04:20:00,rvs,10.77
2023-09-25T04:21:00,rvs,10.65
2023-09-25T04:22:00,rvs,10.49
2023-09-25T04:23:00,rvs,10.48
2023-09-25T04:24:00,rvs,10.30
2023-09-25T04:25:00,rvs,10.44
2023-09-25T04:26:00,rvs,10.52
2023-09-25T04:27:00,rvs,10.47
2023-09-25T04:28:00,rvs,10.56
2023-09-25T04:29:00,rvs,10.69
2023-09-25T04:30:00,rvs,10.96
2023-09-25T04:31:00,rvs,10.59
2023-09-25T04:32:00,rvs,10.60
2023-09-25T04:33:00,rvs,10.05
2023-09-25T04:34:00,rvs,9.91
2023-09-25T04:35:00,rvs,10.16
2023-09-25T04:36:00,rvs,10.23
2023-09-25T04:37:00,rvs,14.64
2023-09-25T04:38:00,rvs,14.50
2023-09-25T04:39:00,rvs,15.55
2023-09-25T04:40:00,rvs,15.13
2023-09-25T04:41:00,rvs,10.56
2023-09-25T04:42:00,rvs,11.40
2023-09-25T04:43:00,rvs,10.68
2023-09-25T04:44:00,rvs,10.69
2023-09-25T04:45:00,rvs,10.59
2023-09-25T04:46:00,rvs,9.82
2023-09-25T04:47:00,rvs,9.75
2023-09-25T04:48:00,rvs,9.87
2023-09-25T04:49:00,rvs,10.03
2023-09-25T04:50:00,rvs,9.96
2023-09-25T04:51:00,rvs,9.89
2023-09-25T04:52:00,rvs,9.95
2023-09-25T04:53:00,rvs,9.82
2023-09-25T04:54:00,rvs,9.83
2023-09-25T04:55:00,rvs,9.95
2023-09-25T04:56:00,rvs,10.25
2023-09-25T04:57:00,rvs,10.42
2023-09-25T04:58:00,rvs,9.96
2023-09-25T04:59:00,rvs,9.82
2023-09-25T05:00:00,rvs,9.77
2023-09-25T05:01:00,rvs,9.93
2023-09-25T05:02:00,rvs,9.86
2023-09-25T05:03:00,rvs,9.77
2023-09-25T05:04:00,rvs,9.67
2023-09-25T05:05:00,rvs,10.14
2023-09-25T05:06:00,rvs,10.24
2023-09-25T05:07:00,rvs,10.18
2023-09-25T05:08:00,rvs,10.46
2023-09-25T05:09:00,rvs,10.54
2023-09-25T05:10:00,rvs,10.57
2023-09-25T05:11:00,rvs,10.58
2023-09-25T05:12:00,rvs,10.64
2023-09-25T05:13:00,rvs,10.63
2023-09-25T05:14:00,rvs,10.55
2023-09-25T05:15:00,rvs,10.58
2023-09-25T05:16:00,rvs,10.49
2023-09-25T05:17:00,rvs,10.32
2023-09-25T05:18:00,rvs,10.29
2023-09-25T05:19:00,rvs,10.37
2023-09-25T05:20:00,rvs,10.50
2023-09-25T05:21:00,rvs,10.41
2023-09-25T05:22:00,rvs,10.43
2023-09-25T05:23:00,rvs,9.97
2023-09-25T05:24:00,rvs,9.89
2023-09-25T05:25:00,rvs,9.85
2023-09-25T05:26:00,rvs,9.85
2023-09-25T05:27:00,rvs,9.90
2023-09-25T05:28:00,rvs,10.17
2023-09-25T05:29:00,rvs,10.09
2023-09-25T05:30:00,rvs,9.98
2023-09-25T05:31:00,rvs,9.93
2023-09-25T05:32:00,rvs,10.04
2023-09-25T05:33:00,rvs,10.05
2023-09-25T05:34:00,rvs,10.13
2023-09-25T05:35:00,rvs,10.32
2023-09-25T05:36:00,rvs,10.37
2023-09-25T05:37:00,rvs,10.40
2023-09-25T05:38:00,rvs,10.40
2023-09-25T05:39:00,rvs,10.17
2023-09-25T05:40:00,rvs,10.20
2023-09-25T05:41:00,rvs,10.09
2023-09-25T05:42:00,rvs,10.34
2023-09-25T05:43:00,rvs,10.70
2023-09-25T05:44:00,rvs,10.68
2023-09-25T05:45:00,rvs,10.61
2023-09-25T05:46:00,rvs,11.00
2023-09-25T05:47:00,rvs,10.56
2023-09-25T05:48:00,rvs,10.88
2023-09-25T05:49:00,rvs,11.05
2023-09-25T05:50:00,rvs,10.85
2023-09-25T05:51:00,rvs,10.80
2023-09-25T05:52:00,rvs,11.09
2023-09-25T05:53:00,rvs,11.17
2023-09-25T05:54:00,rvs,11.32
2023-09-25T05:55:00,rvs,10.54
2023-09-25T05:56:00,rvs,10.75
2023-09-25T05:57:00,rvs,10.76
2023-09-25T05:58:00,rvs,10.18
2023-09-25T05:59:00,rvs,10.31
2023-09-25T06:00:00,rvs,10.27
2023-09-25T06:01:00,rvs,10.58
2023-09-25T06:02:00,rvs,10.63
2023-09-25T06:03:00,rvs,10.54
2023-09-25T06:04:00,rvs,10.57
2023-09-25T06:05:00,rvs,10.45
2023-09-25T06:06:00,rvs,10.61
2023-09-25T06:07:00,rvs,10.58
2023-09-25T06:08:00,rvs,10.74
2023-09-25T06:09:00,rvs,10.84
2023-09-25T06:10:00,rvs,10.85
2023-09-25T06:11:00,rvs,11.49
2023-09-25T06:12:00,rvs,10.70
2023-09-25T06:13:00,rvs,10.42
2023-09-25T06:14:00,rvs,9.88
2023-09-25T06:15:00,rvs,9.80
2023-09-25T06:16:00,rvs,14.31
2023-09-25T06:17:00,rvs,14.29
2023-09-25T06:18:00,rvs,14.38
2023-09-25T06:19:00,rvs,14.55
2023-09-25T06:20:00,rvs,10.17
2023-09-25T06:21:00,rvs,10.52
2023-09-25T06:22:00,rvs,10.15
2023-09-25T06:23:00,rvs,10.08
2023-09-25T06:24:00,rvs,10.14
2023-09-25T06:25:00,rvs,10.19
2023-09-25T06:26:00,rvs,10.53
2023-09-25T06:27:00,rvs,10.56
2023-09-25T06:28:00,rvs,10.42
2023-09-25T06:29:00,rvs,10.15
2023-09-25T06:30:00,rvs,10.03
2023-09-25T06:31:00,rvs,10.35
2023-09-25T06:32:00,rvs,9.98
2023-09-25T06:33:00,rvs,10.02
2023-09-25T06:34:00,rvs,10.09
2023-09-25T06:35:00,rvs,10.05
2023-09-25T06:36:00,rvs,10.03
2023-09-25T06:37:00,rvs,9.99
2023-09-25T06:38:00,rvs,10.09
2023-09-25T06:39:00,rvs,10.74
2023-09-25T06:40:00,rvs,10.02
2023-09-25T06:41:00,rvs,10.29
2023-09-25T06:42:00,rvs,10.30
2023-09-25T06:43:00,rvs,10.47
2023-09-25T06:44:00,rvs,10.16
2023-09-25T06:45:00,rvs,10.10
2023-09-25T06:46:00,rvs,10.59
2023-09-25T06:47:00,rvs,11.69
2023-09-25T06:48:00,rvs,12.05
2023-09-25T06:49:00,rvs,12.01
2023-09-25T06:50:00,rvs,12.02
2023-09-25T06:51:00,rvs,11.58
2023-09-25T06:52:00,rvs,11.35
2023-09-25T06:53:00,rvs,24.47
2023-09-25T06:54:00,rvs,23.64
2023-09-25T06:55:00,rvs,23.38
2023-09-25T06:56:00,rvs,22.44
2023-09-25T06:57:00,rvs,11.49
2023-09-25T06:58:00,rvs,11.53
2023-09-25T06:59:00,rvs,10.27
2023-09-25T07:00:00,rvs,10.24
2023-09-25T07:01:00,rvs,10.43
2023-09-25T07:02:00,rvs,10.63
2023-09-25T07:03:00,rvs,10.69
2023-09-25T07:04:00,rvs,10.68
2023-09-25T07:05:00,rvs,10.63
2023-09-25T07:06:00,rvs,10.79
2023-09-25T07:07:00,rvs,10.84
2023-09-25T07:08:00,rvs,10.80
2023-09-25T07:09:00,rvs,11.13
2023-09-25T07:10:00,rvs,11.15
2023-09-25T07:11:00,rvs,12.06
2023-09-25T07:12:00,rvs,11.88
2023-09-25T07:13:00,rvs,11.50
2023-09-25T07:14:00,rvs,11.19
2023-09-25T07:15:00,rvs,11.18
2023-09-25T07:16:00,rvs,11.15
2023-09-25T07:17:00,rvs,10.53
2023-09-25T07:18:00,rvs,10.78
2023-09-25T07:19:00,rvs,10.83
2023-09-25T07:20:00,rvs,10.90
2023-09-25T07:21:00,rvs,11.30
2023-09-25T07:22:00,rvs,11.20
2023-09-25T07:23:00,rvs,11.24
2023-09-25T07:24:00,rvs,11.23
2023-09-25T07:25:00,rvs,11.20
2023-09-25T07:26:00,rvs,11.29
2023-09-25T07:27:00,rvs,11.43
2023-09-25T07:28:00,rvs,11.64
2023-09-25T07:29:00,rvs,11.93
2023-09-25T07:30:00,rvs,11.17
2023-09-25T07:31:00,rvs,11.39
2023-09-25T07:32:00,rvs,10.65
2023-09-25T07:33:00,rvs,11.24
2023-09-25T07:34:00,rvs,11.32
2023-09-25T07:35:00,rvs,11.38
2023-09-25T07:36:00,rvs,11.31
2023-09-25T07:37:00,rvs,11.33
2023-09-25T07:38:00,rvs,11.30
2023-09-25T07:39:00,rvs,11.83
2023-09-25T07:40:00,rvs,11.83
2023-09-25T07:41:00,rvs,11.79
2023-09-25T07:42:00,rvs,11.74
2023-09-25T07:43:00,rvs,11.74
2023-09-25T07:44:00,rvs,11.80
2023-09-25T07:45:00,rvs,11.53
2023-09-25T07:46:00,rvs,12.05
2023-09-25T07:47:00,rvs,11.91
2023-09-25T07:48:00,rvs,11.62
2023-09-25T07:49:00,rvs,11.35
2023-09-25T07:50:00,rvs,11.36
2023-09-25T07:51:00,rvs,11.52
2023-09-25T07:52:00,rvs,11.63
2023-09-25T07:53:00,rvs,16.34
2023-09-25T07:54:00,rvs,16.10
2023-09-25T07:55:00,rvs,16.19
2023-09-25T07:56:00,rvs,16.33
2023-09-25T07:57:00,rvs,11.30
2023-09-25T07:58:00,rvs,11.67
2023-09-25T07:59:00,rvs,13.01
2023-09-25T08:00:00,rvs,12.23
2023-09-25T08:01:00,rvs,12.06
2023-09-25T08:02:00,rvs,12.14
2023-09-25T08:03:00,rvs,12.17
2023-09-25T08:04:00,rvs,11.91
2023-09-25T08:05:00,rvs,12.30
2023-09-25T08:06:00,rvs,12.30
2023-09-25T08:07:00,rvs,12.04
2023-09-25T08:08:00,rvs,12.18
2023-09-25T08:09:00,rvs,12.25
2023-09-25T08:10:00,rvs,12.20
2023-09-25T08:11:00,rvs,12.46
2023-09-25T08:12:00,rvs,12.14
2023-09-25T08:13:00,rvs,11.91
2023-09-25T08:14:00,rvs,11.89
2023-09-25T08:15:00,rvs,11.94
2023-09-25T08:16:00,rvs,12.09
2023-09-25T08:17:00,rvs,11.93
2023-09-25T08:18:00,rvs,11.93
2023-09-25T08:19:00,rvs,11.37
2023-09-25T08:20:00,rvs,11.74
2023-09-25T08:21:00,rvs,12.07
2023-09-25T08:22:00,rvs,12.14
2023-09-25T08:23:00,rvs,11.37
2023-09-25T08:24:00,rvs,11.38
2023-09-25T08:25:00,rvs,13.04
2023-09-25T08:26:00,rvs,11.61
2023-09-25T08:27:00,rvs,11.60
2023-09-25T08:28:00,rvs,11.71
2023-09-25T08:29:00,rvs,11.84
2023-09-25T08:30:00,rvs,12.19
2023-09-25T08:31:00,rvs,11.87
2023-09-25T08:32:00,rvs,12.30
2023-09-25T08:33:00,rvs,11.88
2023-09-25T08:34:00,rvs,11.92
2023-09-25T08:35:00,rvs,11.84
2023-09-25T08:36:00,rvs,11.65
2023-09-25T08:37:00,rvs,11.78
2023-09-25T08:38:00,rvs,12.26
2023-09-25T08:39:00,rvs,12.14
2023-09-25T08:40:00,rvs,11.97
2023-09-25T08:41:00,rvs,11.64
2023-09-25T08:42:00,rvs,11.99
2023-09-25T08:43:00,rvs,11.13
2023-09-25T08:44:00,rvs,12.46
2023-09-25T08:45:00,rvs,12.99
2023-09-25T08:46:00,rvs,13.02
2023-09-25T08:47:00,rvs,11.67
2023-09-25T08:48:00,rvs,12.21
2023-09-25T08:49:00,rvs,11.84
2023-09-25T08:50:00,rvs,12.83
2023-09-25T08:51:00,rvs,12.13
2023-09-25T08:52:00,rvs,12.22
2023-09-25T08:53:00,rvs,13.28
2023-09-25T08:54:00,rvs,12.57
2023-09-25T08:55:00,rvs,12.59
2023-09-25T08:56:00,rvs,12.99
2023-09-25T08:57:00,rvs,12.47
2023-09-25T08:58:00,rvs,13.00
2023-09-25T08:59:00,rvs,11.46
2023-09-25T09:00:00,rvs,11.89
2023-09-25T09:01:00,rvs,11.71
2023-09-25T09:02:00,rvs,11.76
2023-09-25T09:03:00,rvs,11.65
2023-09-25T09:04:00,rvs,12.23
2023-09-25T09:05:00,rvs,12.43
2023-09-25T09:06:00,rvs,12.38
2023-09-25T09:07:00,rvs,12.14
2023-09-25T09:08:00,rvs,12.16
2023-09-25T09:09:00,rvs,12.36
2023-09-25T09:10:00,rvs,12.52
2023-09-25T09:11:00,rvs,12.25
2023-09-25T09:12:00,rvs,13.84
2023-09-25T09:13:00,rvs,13.84
2023-09-25T09:14:00,rvs,14.25
2023-09-25T09:15:00,rvs,12.60
2023-09-25T09:16:00,rvs,11.84
2023-09-25T09:17:00,rvs,11.87
2023-09-25T09:18:00,rvs,11.85
2023-09-25T09:19:00,rvs,11.81
2023-09-25T09:20:00,rvs,11.79
2023-09-25T09:21:00,rvs,25.13
2023-09-25T09:22:00,rvs,24.84
2023-09-25T09:23:00,rvs,28.93
2023-09-25T09:24:00,rvs,24.65
2023-09-25T09:25:00,rvs,33.83
2023-09-25T09:26:00,rvs,33.64
2023-09-25T09:27:00,rvs,20.99
2023-09-25T09:28:00,rvs,20.94
2023-09-25T09:29:00,rvs,20.46
2023-09-25T09:30:00,rvs,20.45
2023-09-25T09:31:00,rvs,24.39
2023-09-25T09:32:00,rvs,24.89
2023-09-25T09:33:00,rvs,24.53
2023-09-25T09:34:00,rvs,20.29
2023-09-25T09:35:00,rvs,19.87
2023-09-25T09:36:00,rvs,36.76
2023-09-25T09:37:00,rvs,19.82
2023-09-25T09:38:00,rvs,19.88
2023-09-25T09:39:00,rvs,20.90
2023-09-25T09:40:00,rvs,19.83
2023-09-25T09:41:00,rvs,19.63
2023-09-25T09:42:00,rvs,19.77
2023-09-25T09:43:00,rvs,19.93
2023-09-25T09:44:00,rvs,19.81
2023-09-25T09:45:00,rvs,19.98
2023-09-25T09:46:00,rvs,19.98
2023-09-25T09:47:00,rvs,20.04
2023-09-25T09:48:00,rvs,19.87
2023-09-25T09:49:00,rvs,20.21
2023-09-25T09:50:00,rvs,20.80
2023-09-25T09:51:00,rvs,20.27
2023-09-25T09:52:00,rvs,20.13
2023-09-25T09:53:00,rvs,19.66
2023-09-25T09:54:00,rvs,15.72
2023-09-25T09:55:00,rvs,20.38
2023-09-25T09:56:00,rvs,20.29
2023-09-25T09:57:00,rvs,20.32
2023-09-25T09:58:00,rvs,16.23
2023-09-25T09:59:00,rvs,16.23
2023-09-25T10:00:00,rvs,20.18
2023-09-25T10:01:00,rvs,20.58
2023-09-25T10:02:00,rvs,16.16
2023-09-25T10:03:00,rvs,15.79
2023-09-25T10:04:00,rvs,15.91
2023-09-25T10:05:00,rvs,16.04
2023-09-25T10:06:00,rvs,15.46
2023-09-25T10:07:00,rvs,15.67
2023-09-25T10:08:00,rvs,11.63
2023-09-25T10:09:00,rvs,15.67
2023-09-25T10:10:00,rvs,11.20
2023-09-25T10:11:00,rvs,11.23
2023-09-25T10:12:00,rvs,11.29
2023-09-25T10:13:00,rvs,19.59
2023-09-25T10:14:00,rvs,11.60
2023-09-25T10:15:00,rvs,11.52
2023-09-25T10:16:00,rvs,15.55
2023-09-25T10:17:00,rvs,11.12
2023-09-25T10:18:00,rvs,11.11
2023-09-25T10:19:00,rvs,11.38
2023-09-25T10:20:00,rvs,11.39
2023-09-25T10:21:00,rvs,11.19
2023-09-25T10:22:00,rvs,11.14
2023-09-25T10:23:00,rvs,11.27
2023-09-25T10:24:00,rvs,11.05
2023-09-25T10:25:00,rvs,10.80
2023-09-25T10:26:00,rvs,10.92
2023-09-25T10:27:00,rvs,10.79
2023-09-25T10:28:00,rvs,10.85
2023-09-25T10:29:00,rvs,11.36
2023-09-25T10:30:00,rvs,11.43
2023-09-25T10:31:00,rvs,11.37
2023-09-25T10:32:00,rvs,11.49
2023-09-25T10:33:00,rvs,10.99
2023-09-25T10:34:00,rvs,11.09
2023-09-25T10:35:00,rvs,11.24
2023-09-25T10:36:00,rvs,11.12
2023-09-25T10:37:00,rvs,11.41
2023-09-25T10:38:00,rvs,13.43
2023-09-25T10:39:00,rvs,14.66
2023-09-25T10:40:00,rvs,12.94
2023-09-25T10:41:00,rvs,12.70
2023-09-25T10:42:00,rvs,11.62
2023-09-25T10:43:00,rvs,11.63
2023-09-25T10:44:00,rvs,11.62
2023-09-25T10:45:00,rvs,30.23
2023-09-25T10:46:00,rvs,13.42
2023-09-25T10:47:00,rvs,11.96
2023-09-25T10:48:00,rvs,11.68
2023-09-25T10:49:00,rvs,11.98
2023-09-25T10:50:00,rvs,11.99
2023-09-25T10:51:00,rvs,11.96
2023-09-25T10:52:00,rvs,12.99
2023-09-25T10:53:00,rvs,12.90
2023-09-25T10:54:00,rvs,12.02
2023-09-25T10:55:00,rvs,13.28
2023-09-25T10:56:00,rvs,13.30
2023-09-25T10:57:00,rvs,11.65
2023-09-25T10:58:00,rvs,11.33
2023-09-25T10:59:00,rvs,11.16
2023-09-25T11:00:00,rvs,11.12
2023-09-25T11:01:00,rvs,11.35
2023-09-25T11:02:00,rvs,11.39
2023-09-25T11:03:00,rvs,11.53
2023-09-25T11:04:00,rvs,13.07
2023-09-25T11:05:00,rvs,12.45
2023-09-25T11:06:00,rvs,12.34
2023-09-25T11:07:00,rvs,12.37
2023-09-25T11:08:00,rvs,14.25
2023-09-25T11:09:00,rvs,14.59
2023-09-25T11:10:00,rvs,14.82
2023-09-25T11:11:00,rvs,14.31
2023-09-25T11:12:00,rvs,13.16
2023-09-25T11:13:00,rvs,14.29
2023-09-25T11:14:00,rvs,13.07
2023-09-25T11:15:00,rvs,13.59
2023-09-25T11:16:00,rvs,11.73
2023-09-25T11:17:00,rvs,11.98
2023-09-25T11:18:00,rvs,11.58
2023-09-25T11:19:00,rvs,11.62
2023-09-25T11:20:00,rvs,11.54
2023-09-25T11:21:00,rvs,11.31
2023-09-25T11:22:00,rvs,11.29
2023-09-25T11:23:00,rvs,11.41
2023-09-25T11:24:00,rvs,12.06
2023-09-25T11:25:00,rvs,12.02
2023-09-25T11:26:00,rvs,11.90
2023-09-25T11:27:00,rvs,11.33
2023-09-25T11:28:00,rvs,11.43
2023-09-25T11:29:00,rvs,11.72
2023-09-25T11:30:00,rvs,11.24
2023-09-25T11:31:00,rvs,11.09
2023-09-25T11:32:00,rvs,11.17
2023-09-25T11:33:00,rvs,12.49
2023-09-25T11:34:00,rvs,12.59
2023-09-25T11:35:00,rvs,12.42
2023-09-25T11:36:00,rvs,11.00
2023-09-25T11:37:00,rvs,10.98
2023-09-25T11:38:00,rvs,10.87
2023-09-25T11:39:00,rvs,10.88
2023-09-25T11:40:00,rvs,11.01
2023-09-25T11:41:00,rvs,11.01
2023-09-25T11:42:00,rvs,11.29
2023-09-25T11:43:00,rvs,11.13
2023-09-25T11:44:00,rvs,11.39
2023-09-25T11:45:00,rvs,11.40
2023-09-25T11:46:00,rvs,11.37
2023-09-25T11:47:00,rvs,12.01
2023-09-25T11:48:00,rvs,11.70
2023-09-25T11:49:00,rvs,11.75
2023-09-25T11:50:00,rvs,11.75
2023-09-25T11:51:00,rvs,12.04
2023-09-25T11:52:00,rvs,11.77
2023-09-25T11:53:00,rvs,11.87
2023-09-25T11:54:00,rvs,11.14
2023-09-25T11:55:00,rvs,10.97
2023-09-25T11:56:00,rvs,10.96
2023-09-25T11:57:00,rvs,10.95
2023-09-25T11:58:00,rvs,10.89
2023-09-25T11:59:00,rvs,10.96
2023-09-25T12:00:00,rvs,10.85
2023-09-25T12:01:00,rvs,11.05
2023-09-25T12:02:00,rvs,10.62
2023-09-25T12:03:00,rvs,10.63
2023-09-25T12:04:00,rvs,10.63
2023-09-25T12:05:00,rvs,10.66
2023-09-25T12:06:00,rvs,10.55
2023-09-25T12:07:00,rvs,10.53
2023-09-25T12:08:00,rvs,10.71
2023-09-25T12:09:00,rvs,10.75
2023-09-25T12:10:00,rvs,24.39
2023-09-25T12:11:00,rvs,28.39
2023-09-25T12:12:00,rvs,24.33
2023-09-25T12:13:00,rvs,28.77
2023-09-25T12:14:00,rvs,28.18
2023-09-25T12:15:00,rvs,15.62
2023-09-25T12:16:00,rvs,11.21
2023-09-25T12:17:00,rvs,11.22
2023-09-25T12:18:00,rvs,11.12
2023-09-25T12:19:00,rvs,11.39
2023-09-25T12:20:00,rvs,12.00
2023-09-25T12:21:00,rvs,12.15
2023-09-25T12:22:00,rvs,12.37
2023-09-25T12:23:00,rvs,12.18
2023-09-25T12:24:00,rvs,12.07
2023-09-25T12:25:00,rvs,11.59
2023-09-25T12:26:00,rvs,11.61
2023-09-25T12:27:00,rvs,11.70
2023-09-25T12:28:00,rvs,11.06
2023-09-25T12:29:00,rvs,11.02
2023-09-25T12:30:00,rvs,11.30
2023-09-25T12:31:00,rvs,11.76
2023-09-25T12:32:00,rvs,11.86
2023-09-25T12:33:00,rvs,12.43
2023-09-25T12:34:00,rvs,12.08
2023-09-25T12:35:00,rvs,11.56
2023-09-25T12:36:00,rvs,11.58
2023-09-25T12:37:00,rvs,11.55
2023-09-25T12:38:00,rvs,11.46
2023-09-25T12:39:00,rvs,11.32
2023-09-25T12:40:00,rvs,10.98
2023-09-25T12:41:00,rvs,11.00
2023-09-25T12:42:00,rvs,11.63
2023-09-25T12:43:00,rvs,11.07
2023-09-25T12:44:00,rvs,10.99
2023-09-25T12:45:00,rvs,11.01
2023-09-25T12:46:00,rvs,10.92
2023-09-25T12:47:00,rvs,10.88
2023-09-25T12:48:00,rvs,10.76
2023-09-25T12:49:00,rvs,10.90
2023-09-25T12:50:00,rvs,10.79
2023-09-25T12:51:00,rvs,11.62
2023-09-25T12:52:00,rvs,11.63
2023-09-25T12:53:00,rvs,12.42
2023-09-25T12:54:00,rvs,13.79
2023-09-25T12:55:00,rvs,13.73
2023-09-25T12:56:00,rvs,13.26
2023-09-25T12:57:00,rvs,12.86
2023-09-25T12:58:00,rvs,12.89
2023-09-25T12:59:00,rvs,12.95
2023-09-25T13:00:00,rvs,12.94
2023-09-25T13:01:00,rvs,13.26
2023-09-25T13:02:00,rvs,13.61
2023-09-25T13:03:00,rvs,14.35
2023-09-25T13:04:00,rvs,14.35
2023-09-25T13:05:00,rvs,14.05
2023-09-25T13:06:00,rvs,13.72
2023-09-25T13:07:00,rvs,13.75
2023-09-25T13:08:00,rvs,13.93
2023-09-25T13:09:00,rvs,14.49
2023-09-25T13:10:00,rvs,14.43
2023-09-25T13:11:00,rvs,15.32
2023-09-25T13:12:00,rvs,19.57
2023-09-25T13:13:00,rvs,20.24
2023-09-25T13:14:00,rvs,20.80
2023-09-25T13:15:00,rvs,15.18
2023-09-25T13:16:00,rvs,16.09
2023-09-25T13:17:00,rvs,16.44
2023-09-25T13:18:00,rvs,16.57
2023-09-25T13:19:00,rvs,14.86